"2016-05-06 00:00:00",1608411,3.734,115,2.522,0.19,21.15,108.8549,21.95,22.93,16.69,0,111.1,13.04,22.78,77.0
"2016-05-06 00:00:30",1608412,3.681,117.4,3.029,0.197,21.25,108.8623,21.97,22.92,17.1,0,111.1,13.04,22.80,79.4
"2016-05-06 00:01:00",1608413,4.216,119.8,2.74,0.2,21.21,108.8628,21.97,22.94,16.59,0,111.1,13.04,22.80,81.8
"2016-05-06 00:01:30",1608414,3.531,122,3.344,0.245,21.28,108.8619,21.97,22.93,16.19,0,111.1,13.04,22.80,84.0
"2016-05-06 00:02:00",1608415,3.35,122,8.14,0.238,21.3,108.8613,21.97,22.94,16.24,0,111.1,13.04,22.80,84.0
"2016-05-06 00:02:30",1608416,2.862,113.2,4.274,0.27,21.29,108.8613,21.97,22.95,16.43,0,111.1,13.04,22.80,75.2
"2016-05-06 00:03:00",1608417,2.914,130.3,3.049,0.192,21.24,108.8604,21.97,22.95,16.24,0,111.1,13.04,22.80,92.3
"2016-05-06 00:03:30",1608418,3.193,129.5,1.507,0.279,21.21,108.8616,21.97,22.96,16.09,0,111.1,13.04,22.80,91.5
"2016-05-06 00:04:00",1608419,3.914,131.2,1.471,0.249,21.29,108.8604,21.97,22.96,15.62,0,111.1,13.04,22.80,93.2
"2016-05-06 00:04:30",1608420,3.965,128.5,1.529,0.08,21.25,108.8582,21.96,22.96,15.38,0,111.1,13.04,22.79,90.5
"2016-05-06 00:05:00",1608421,4.112,127.3,1.819,0.167,21.33,108.8582,21.96,22.96,15.6,0,111.1,13.03,22.79,89.3
"2016-05-06 00:05:30",1608422,3.706,128.4,2.549,0.28,21.26,108.8607,21.97,22.98,15.95,0,111.1,13.03,22.80,90.4
"2016-05-06 00:06:00",1608423,3.963,125.1,2.279,0.307,21.26,108.8576,21.96,22.97,16.17,0,111.1,13.03,22.79,87.1
"2016-05-06 00:06:30",1608424,4.323,124.8,1.85,0.226,21.25,108.8585,21.96,22.95,15.73,0,111.1,13.03,22.79,86.8
"2016-05-06 00:07:00",1608425,4.281,121.7,2.018,0.265,21.24,108.8561,21.96,22.97,15.74,0,111.1,13.03,22.79,83.7
"2016-05-06 00:07:30",1608426,4.558,119.7,1.591,0.125,21.26,108.8561,21.96,22.98,15.47,0,111.1,13.03,22.79,81.7
"2016-05-06 00:08:00",1608427,4.795,118.3,2.12,0.174,21.29,108.8542,21.95,22.98,15.32,0,111.1,13.03,22.78,80.3
"2016-05-06 00:08:30",1608428,4.505,122.3,3.723,0.239,21.23,108.8549,21.95,22.98,15.18,0,111.1,13.03,22.78,84.3
"2016-05-06 00:09:00",1608429,4.525,128.5,1.266,0.129,21.17,108.8536,21.95,22.98,15.3,0,111.1,13.03,22.78,90.5
"2016-05-06 00:09:30",1608430,5.009,126.2,2.071,0.334,21.12,108.8545,21.95,22.99,15.5,0,111.1,13.03,22.78,88.2
"2016-05-06 00:10:00",1608431,5.624,124.8,1.098,0.154,21.13,108.8503,21.94,22.99,15.52,0,111.1,13.03,22.77,86.8
"2016-05-06 00:10:30",1608432,5.475,123.6,1.75,0.205,21.11,108.8496,21.94,22.97,15.56,0,111.1,13.03,22.77,85.6
"2016-05-06 00:11:00",1608433,5.042,125.5,2.797,0.084,21.14,108.8438,21.93,22.99,15.61,0,111.1,13.04,22.75,87.5
"2016-05-06 00:11:30",1608434,4.959,128.2,1.507,0.087,21.1,108.8438,21.93,22.99,15.71,0,111.1,13.04,22.75,90.2
"2016-05-06 00:12:00",1608435,4.986,128.4,1.285,0.075,21.17,108.8426,21.92,22.98,15.44,0,111.1,13.04,22.75,90.4
"2016-05-06 00:12:30",1608436,5.225,129,1.056,0.074,21.2,108.8408,21.92,22.97,15.31,0,111.1,13.04,22.75,91.0
"2016-05-06 00:13:00",1608437,5.251,128.4,1.422,0.133,21.22,108.838,21.91,22.99,15.25,0,111.1,13.04,22.74,90.4
"2016-05-06 00:13:30",1608438,5.224,128.8,1.748,0.118,21.21,108.8386,21.91,22.98,15,0,111.1,13.04,22.74,90.8
"2016-05-06 00:14:00",1608439,5.399,131,1.099,0.145,21.27,108.838,21.91,22.97,14.78,0,111.1,13.04,22.74,93.0
"2016-05-06 00:14:30",1608440,5.793,133.8,1.63,0.12,21.34,108.838,21.91,22.97,14.58,0,111.1,13.04,22.74,95.8
"2016-05-06 00:15:00",1608441,5.802,131.4,1.789,0.11,21.31,108.8374,21.91,22.97,14.83,0,111.1,13.04,22.74,93.4
"2016-05-06 00:15:30",1608442,5.616,129,0.82,0.102,21.29,108.8359,21.9,22.97,14.92,0,111.1,13.04,22.73,91.0
"2016-05-06 00:16:00",1608443,5.854,130.5,1.021,0.069,21.39,108.8368,21.91,22.97,14.99,0,111.1,13.04,22.74,92.5
"2016-05-06 00:16:30",1608444,6.099,130.6,0.553,0.078,21.39,108.8359,21.9,22.96,15.15,0,111.1,13.04,22.73,92.6
"2016-05-06 00:17:00",1608445,6.178,132,0.684,0.079,21.38,108.835,21.9,22.97,15.12,0,111.1,13.04,22.73,94.0
"2016-05-06 00:17:30",1608446,5.96,133.8,1.418,0.066,21.41,108.8359,21.9,22.98,15.11,0,111.1,13.04,22.73,95.8
"2016-05-06 00:18:00",1608447,6.057,136.9,0.94,0.08,21.53,108.8359,21.9,22.97,15.17,0,111.1,13.04,22.73,98.9
"2016-05-06 00:18:30",1608448,6.048,137,0.671,0.112,21.55,108.8362,21.91,22.99,15.06,0,111.1,13.04,22.73,99.0
"2016-05-06 00:19:00",1608449,5.908,136.9,0.636,0.097,21.62,108.8359,21.9,22.98,15.02,0,111.1,13.03,22.73,98.9
"2016-05-06 00:19:30",1608450,6.014,136.3,0.735,0.123,21.6,108.8368,21.91,22.97,15.04,0,111.1,13.04,22.74,98.3
"2016-05-06 00:20:00",1608451,6.192,136.9,0.918,0.125,21.52,108.8359,21.9,22.97,14.56,0,111.1,13.04,22.73,98.9
"2016-05-06 00:20:30",1608452,6.21,135.3,1.876,0.114,21.48,108.8356,21.9,22.96,14.81,0,111.1,13.04,22.73,97.3
"2016-05-06 00:21:00",1608453,6.139,136.7,1.876,0.124,21.53,108.8362,21.91,22.97,15.2,0,111.1,13.04,22.73,98.7
"2016-05-06 00:21:30",1608454,6.202,139.5,1.4,0.086,21.54,108.835,21.9,22.96,14.65,0,111.1,13.03,22.73,101.5
"2016-05-06 00:22:00",1608455,6.083,139.3,0.579,0.081,21.48,108.8371,21.91,22.96,14.4,0,111.1,13.03,22.74,101.3
"2016-05-06 00:22:30",1608456,6.308,137.7,1.261,0.112,21.5,108.8359,21.9,22.97,14.31,0,111.1,13.03,22.73,99.7
"2016-05-06 00:23:00",1608457,6.173,138.8,0.865,0.089,21.54,108.835,21.9,22.96,14.26,0,111.1,13.03,22.73,100.8
"2016-05-06 00:23:30",1608458,6.368,139,1.427,0.228,21.58,108.8363,21.91,22.95,14.28,0,111.1,13.03,22.73,101.0
"2016-05-06 00:24:00",1608459,6.66,144.2,1.392,0.1,21.66,108.8309,21.89,22.95,14.28,0,111.1,13.03,22.72,106.2
"2016-05-06 00:24:30",1608460,6.407,142.7,1.603,0.222,21.68,108.8284,21.89,22.95,14.39,0,111.1,13.03,22.71,104.7
"2016-05-06 00:25:00",1608461,6.125,146.8,2.733,0.103,21.66,108.8293,21.89,22.92,14.41,0,111.1,13.03,22.72,108.8
"2016-05-06 00:25:30",1608462,6.083,146.8,2.543,0.133,21.61,108.8277,21.88,22.94,14.3,0,111.1,13.03,22.71,108.8
"2016-05-06 00:26:00",1608463,5.89,144.4,1.815,0.069,21.53,108.8268,21.88,22.94,14.32,0,111.1,13.03,22.71,106.4
"2016-05-06 00:26:30",1608464,5.961,141.6,0.503,0.054,21.53,108.8295,21.89,22.93,14.27,0,111.1,13.03,22.72,103.6
"2016-05-06 00:27:00",1608465,6.025,142.5,1.622,0.092,21.56,108.8282,21.89,22.93,14.46,0,111.1,13.03,22.71,104.5
"2016-05-06 00:27:30",1608466,5.99,140.7,0.972,0.093,21.57,108.8257,21.88,22.93,14.5,0,111.1,13.03,22.71,102.7
"2016-05-06 00:28:00",1608467,5.809,141.8,1.373,0.078,21.55,108.8252,21.88,22.93,14.6,0,111.1,13.03,22.71,103.8
"2016-05-06 00:28:30",1608468,5.958,142.6,1.772,0.171,21.62,108.825,21.88,22.93,14.55,0,111.1,13.03,22.71,104.6
"2016-05-06 00:29:00",1608469,5.991,147,1.209,0.123,21.68,108.8196,21.86,22.93,14.64,0,111.1,13.04,22.69,109.0
"2016-05-06 00:29:30",1608470,5.66,148.4,1.553,0.201,21.65,108.8175,21.86,22.93,14.62,0,111.1,13.04,22.69,110.4
"2016-05-06 00:30:00",1608471,6.233,144.7,1.195,0.151,21.62,108.8152,21.85,22.92,14.63,0,111.1,13.04,22.68,106.7
"2016-05-06 00:30:30",1608472,6.188,144.5,1.172,0.098,21.67,108.8135,21.85,22.92,14.83,0,111.1,13.04,22.68,106.5
"2016-05-06 00:31:00",1608473,5.766,148.1,1.469,0.184,21.66,108.8136,21.85,22.91,14.88,0,111.1,13.04,22.68,110.1
"2016-05-06 00:31:30",1608474,5.689,150.4,1.79,0.092,21.68,108.8101,21.84,22.91,14.87,0,111.1,13.04,22.67,112.4
"2016-05-06 00:32:00",1608475,5.569,150.6,1.966,0.153,21.58,108.814,21.85,22.91,14.9,0,111.1,13.04,22.68,112.6
"2016-05-06 00:32:30",1608476,5.92,155.9,2.496,0.102,21.66,108.815,21.85,22.92,15.1,0,111.1,13.04,22.68,117.9
"2016-05-06 00:33:00",1608477,5.811,155.9,0.585,0.208,21.68,108.8153,21.85,22.91,15.15,0,111.1,13.04,22.68,117.9
"2016-05-06 00:33:30",1608478,6.392,157.1,0.946,0.147,21.7,108.8147,21.85,22.91,15.34,0,111.1,13.04,22.68,119.1
"2016-05-06 00:34:00",1608479,6.368,155.9,1.155,0.073,21.76,108.8181,21.86,22.89,14.8,0,111.1,13.04,22.69,117.9
"2016-05-06 00:34:30",1608480,6.699,155.2,1.031,0.149,21.71,108.8187,21.86,22.89,14.6,0,111.1,13.04,22.69,117.2
"2016-05-06 00:35:00",1608481,6.72,157.3,1,0.171,21.77,108.8208,21.87,22.91,14.65,0,111.1,13.04,22.69,119.3
"2016-05-06 00:35:30",1608482,6.448,155,2.068,0.241,21.77,108.8217,21.87,22.9,14.83,0,111.1,13.04,22.70,117.0
"2016-05-06 00:36:00",1608483,6.798,153.3,1.069,0.086,21.75,108.8211,21.87,22.89,14.82,0,111.1,13.04,22.70,115.3
"2016-05-06 00:36:30",1608484,6.573,153.3,0.872,0.049,21.77,108.8251,21.88,22.88,14.2,0,111.1,13.04,22.71,115.3
"2016-05-06 00:37:00",1608485,6.566,155.3,0.908,0.082,21.83,108.8248,21.88,22.88,14.14,0,111.1,13.04,22.70,117.3
"2016-05-06 00:37:30",1608486,6.465,155.2,0.965,0.081,21.93,108.8263,21.88,22.89,14.09,0,111.1,13.04,22.71,117.2
"2016-05-06 00:38:00",1608487,6.317,153.1,1.409,0.067,22,108.8256,21.88,22.87,14.06,0,111.1,13.04,22.71,115.1
"2016-05-06 00:38:30",1608488,6.294,151.5,0.555,0.058,22.08,108.8195,21.86,22.87,14.03,0,111.1,13.04,22.69,113.5
"2016-05-06 00:39:00",1608489,6.368,151.6,0.507,0.082,22.09,108.8127,21.85,22.87,13.99,0,111.1,13.04,22.67,113.6
"2016-05-06 00:39:30",1608490,6.616,151.6,0.944,0.075,21.97,108.8059,21.83,22.86,14.04,0,111.1,13.04,22.66,113.6
"2016-05-06 00:40:00",1608491,6.526,151.9,0.84,0.053,22.11,108.7962,21.8,22.87,14.06,0,111.1,13.03,22.63,113.9
"2016-05-06 00:40:30",1608492,6.268,153.1,1.057,0.075,22.17,108.7975,21.81,22.85,14.02,0,111.1,13.03,22.63,115.1
"2016-05-06 00:41:00",1608493,6.292,153.7,0.649,0.064,22.2,108.7996,21.81,22.85,13.95,0,111.1,13.03,22.64,115.7
"2016-05-06 00:41:30",1608494,6.072,152.7,0.696,0.049,22.17,108.8012,21.82,22.84,13.93,0,111.1,13.03,22.64,114.7
"2016-05-06 00:42:00",1608495,6.001,152.1,0.537,0.039,22.11,108.8024,21.82,22.82,13.93,0,111.1,13.03,22.65,114.1
"2016-05-06 00:42:30",1608496,6.051,152.2,0.832,0.055,22.18,108.8018,21.82,22.81,13.92,0,111.1,13.03,22.65,114.2
"2016-05-06 00:43:00",1608497,6.252,152.3,0.816,0.049,22.24,108.7951,21.8,22.8,13.9,0,111.1,13.03,22.63,114.3
"2016-05-06 00:43:30",1608498,6.222,150,0.66,0.122,22.17,108.7763,21.75,22.79,13.97,0,111.1,13.03,22.58,112.0
"2016-05-06 00:44:00",1608499,6.554,150.8,0.665,0.088,22.25,108.769,21.73,22.79,14.02,0,111.1,13.03,22.56,112.8
"2016-05-06 00:44:30",1608500,6.32,152.6,0.615,0.036,22.28,108.769,21.73,22.77,14.08,0,111.1,13.03,22.56,114.6
"2016-05-06 00:45:00",1608501,6.332,151.5,1.129,0.058,22.28,108.769,21.73,22.77,14.04,0,111.1,13.03,22.56,113.5
"2016-05-06 00:45:30",1608502,6.343,149.5,0.989,0.114,22.19,108.769,21.73,22.76,14.08,0,111.1,13.04,22.56,111.5
"2016-05-06 00:46:00",1608503,6.123,147.8,1.03,0.118,22.1,108.7653,21.72,22.76,14.12,0,111.1,13.04,22.55,109.8
"2016-05-06 00:46:30",1608504,6.223,146.9,0.832,0.111,22.05,108.7515,21.69,22.73,14.2,0,111.1,13.04,22.52,108.9
"2016-05-06 00:47:00",1608505,6.202,146.5,0.977,0.11,22.03,108.7403,21.66,22.72,14.23,0,111.1,13.04,22.49,108.5
"2016-05-06 00:47:30",1608506,6.23,149.4,0.43,0.074,21.98,108.7352,21.65,22.71,14.29,0,111.1,13.04,22.47,111.4
"2016-05-06 00:48:00",1608507,6.236,149.7,1.333,0.155,21.99,108.7352,21.65,22.7,14.25,0,111.1,13.04,22.47,111.7
"2016-05-06 00:48:30",1608508,6.55,149.3,0.955,0.134,22.02,108.7352,21.65,22.69,14.14,0,111.1,13.04,22.47,111.3
"2016-05-06 00:49:00",1608509,6.854,147.5,2.172,0.135,21.96,108.7352,21.65,22.69,14.3,0,111.1,13.04,22.47,109.5
"2016-05-06 00:49:30",1608510,6.707,144.5,2.176,0.112,22.05,108.7352,21.65,22.66,14.56,0,111.1,13.04,22.47,106.5
"2016-05-06 00:50:00",1608511,6.679,148.7,1.92,0.194,22.04,108.7344,21.64,22.66,14.65,0,111.1,13.04,22.47,110.7
"2016-05-06 00:50:30",1608512,6.896,152.3,1.768,0.155,22.14,108.7274,21.63,22.65,14.63,0,111.1,13.04,22.45,114.3
"2016-05-06 00:51:00",1608513,6.807,151.1,1.192,0.098,22.02,108.7147,21.59,22.65,14.45,0,111.1,13.04,22.42,113.1
"2016-05-06 00:51:30",1608514,6.801,151.6,1.355,0.103,22.01,108.7043,21.57,22.64,14.93,0,111.1,13.04,22.39,113.6
"2016-05-06 00:52:00",1608515,6.78,152.3,1.611,0.074,22.04,108.7015,21.56,22.63,14.7,0,111.1,13.04,22.39,114.3
"2016-05-06 00:52:30",1608516,6.774,153,1.173,0.063,22.06,108.7015,21.56,22.61,14.76,0,111.1,13.04,22.39,115.0
"2016-05-06 00:53:00",1608517,6.692,153.6,0.532,0.053,22.03,108.7015,21.56,22.61,14.87,0,111.1,13.05,22.39,115.6
"2016-05-06 00:53:30",1608518,6.506,153.5,0.533,0.051,22.02,108.7015,21.56,22.61,14.33,0,111.1,13.05,22.39,115.5
"2016-05-06 00:54:00",1608519,6.562,153.6,0.53,0.075,22.04,108.7015,21.56,22.59,14.14,0,111.1,13.05,22.39,115.6
"2016-05-06 00:54:30",1608520,6.559,152.4,0.661,0.052,22.02,108.7004,21.56,22.59,14.19,0,111.1,13.04,22.38,114.4
"2016-05-06 00:55:00",1608521,6.563,151.2,0.676,0.06,22.03,108.6959,21.55,22.58,14.15,0,111.1,13.05,22.37,113.2
"2016-05-06 00:55:30",1608522,6.67,151.8,1.086,0.058,21.98,108.6903,21.53,22.58,14.25,0,111.1,13.05,22.36,113.8
"2016-05-06 00:56:00",1608523,6.645,152,1.219,0.053,21.97,108.6768,21.5,22.57,14.36,0,111.1,13.04,22.32,114.0
"2016-05-06 00:56:30",1608524,6.693,152.2,1.235,0.061,22,108.6689,21.48,22.56,14.32,0,111.1,13.04,22.30,114.2
"2016-05-06 00:57:00",1608525,6.624,149.9,0.718,0.091,22,108.6678,21.47,22.56,14.51,0,111.1,13.04,22.30,111.9
"2016-05-06 00:57:30",1608526,6.384,152.3,1.35,0.089,22.16,108.6681,21.47,22.54,14.42,0,111.1,13.04,22.30,114.3
"2016-05-06 00:58:00",1608527,6.661,156.2,1.53,0.09,22.16,108.6678,21.47,22.53,14.24,0,111.1,13.04,22.30,118.2
"2016-05-06 00:58:30",1608528,6.704,156.9,0.81,0.143,22.17,108.6678,21.47,22.53,14.29,0,111.1,13.04,22.30,118.9
"2016-05-06 00:59:00",1608529,6.657,155.6,1.929,0.106,22.17,108.6687,21.48,22.52,14.26,0,111,13.04,22.30,117.6
"2016-05-06 00:59:30",1608530,6.555,154.9,0.764,0.045,22.08,108.6696,21.48,22.53,14.27,0,111,13.04,22.30,116.9
"2016-05-06 01:00:00",1608531,6.809,154.6,0.819,0.142,22.14,108.6709,21.48,22.51,14.27,0,111.1,13.04,22.31,116.6
"2016-05-06 01:00:30",1608532,6.838,154.5,1.011,0.066,22.18,108.6715,21.48,22.52,14.23,0,111,13.04,22.31,116.5
"2016-05-06 01:01:00",1608533,7.005,153.7,0.661,0.071,22.22,108.6755,21.49,22.51,14.37,0,111,13.04,22.32,115.7
"2016-05-06 01:01:30",1608534,6.987,154.7,1.241,0.089,22.19,108.6745,21.49,22.51,14.28,0,111,13.04,22.32,116.7
"2016-05-06 01:02:00",1608535,6.967,155.6,0.656,0.098,22.2,108.6759,21.49,22.5,14.18,0,111,13.04,22.32,117.6
"2016-05-06 01:02:30",1608536,6.927,155.5,0.745,0.076,22.28,108.6679,21.47,22.5,14.14,0,111,13.04,22.30,117.5
"2016-05-06 01:03:00",1608537,6.873,154.8,0.687,0.067,22.28,108.662,21.46,22.49,14.11,0,111,13.04,22.29,116.8
"2016-05-06 01:03:30",1608538,6.708,155,0.561,0.095,22.18,108.6591,21.45,22.49,14.13,0,111,13.05,22.28,117.0
"2016-05-06 01:04:00",1608539,6.723,154.7,0.528,0.046,22.21,108.6581,21.45,22.48,14.14,0,111,13.05,22.28,116.7
"2016-05-06 01:04:30",1608540,6.694,154.6,0.524,0.056,22.23,108.6606,21.45,22.48,14.16,0,111,13.05,22.28,116.6
"2016-05-06 01:05:00",1608541,6.85,154.7,0.605,0.082,22.3,108.6606,21.45,22.47,14.18,0,111,13.05,22.28,116.7
"2016-05-06 01:05:30",1608542,7.115,155.1,0.699,0.068,22.26,108.6625,21.46,22.46,14.17,0,111,13.05,22.29,117.1
"2016-05-06 01:06:00",1608543,7.225,156,0.591,0.102,22.23,108.6646,21.47,22.46,14.15,0,111,13.05,22.29,118.0
"2016-05-06 01:06:30",1608544,7.42,155.5,0.897,0.125,22.29,108.6661,21.47,22.46,14.13,0,111,13.05,22.30,117.5
"2016-05-06 01:07:00",1608545,7.317,155,0.453,0.064,22.2,108.6667,21.47,22.45,14.07,0,111,13.05,22.30,117.0
"2016-05-06 01:07:30",1608546,7.48,154.9,1.821,0.088,22.26,108.6683,21.47,22.45,14.02,0,111,13.05,22.30,116.9
"2016-05-06 01:08:00",1608547,7.604,156.3,1.037,0.079,22.4,108.6686,21.48,22.44,14.22,0,111,13.05,22.30,118.3
"2016-05-06 01:08:30",1608548,7.235,156.9,0.749,0.08,22.2,108.6614,21.46,22.44,14.24,0,111,13.05,22.28,118.9
"2016-05-06 01:09:00",1608549,7.398,156.9,0.725,0.128,22.34,108.6488,21.42,22.43,14.3,0,111,13.06,22.25,118.9
"2016-05-06 01:09:30",1608550,7.521,157.9,0.666,0.047,22.41,108.6426,21.41,22.41,14.37,0,111,13.06,22.24,119.9
"2016-05-06 01:10:00",1608551,7.526,158.5,1.021,0.068,22.35,108.6378,21.4,22.43,14.36,0,111,13.06,22.22,120.5
"2016-05-06 01:10:30",1608552,7.516,158.9,0.747,0.067,22.37,108.637,21.39,22.43,14.35,0,111,13.06,22.22,120.9
"2016-05-06 01:11:00",1608553,7.382,160,0.659,0.101,22.41,108.637,21.39,22.4,14.37,0,111,13.06,22.22,122.0
"2016-05-06 01:11:30",1608554,7.258,160.8,0.754,0.078,22.28,108.637,21.39,22.4,14.39,0,111,13.06,22.22,122.8
"2016-05-06 01:12:00",1608555,7.18,160.6,0.599,0.057,22.23,108.637,21.39,22.38,14.43,0,111,13.06,22.22,122.6
"2016-05-06 01:12:30",1608556,7.202,160.1,0.392,0.065,22.24,108.6347,21.39,22.39,14.47,0,111,13.06,22.21,122.1
"2016-05-06 01:13:00",1608557,7.198,159.9,0.711,0.041,22.22,108.6291,21.37,22.38,14.53,0,111,13.06,22.20,121.9
"2016-05-06 01:13:30",1608558,7.334,160.2,0.715,0.101,22.31,108.6243,21.36,22.36,14.62,0,111,13.06,22.19,122.2
"2016-05-06 01:14:00",1608559,7.411,162.1,0.475,0.113,22.4,108.6125,21.33,22.36,14.76,0,111,13.05,22.16,124.1
"2016-05-06 01:14:30",1608560,7.498,162.7,0.599,0.05,22.4,108.6035,21.31,22.36,14.89,0,111,13.05,22.13,124.7
"2016-05-06 01:15:00",1608561,7.553,162.8,0.421,0.083,22.35,108.6032,21.31,22.34,14.99,0,111,13.05,22.13,124.8
"2016-05-06 01:15:30",1608562,7.365,163.3,0.504,0.087,22.37,108.6032,21.31,22.35,15.04,0,111,13.05,22.13,125.3
"2016-05-06 01:16:00",1608563,7.4,163.2,0.453,0.061,22.38,108.6032,21.31,22.34,15.22,0,111,13.05,22.13,125.2
"2016-05-06 01:16:30",1608564,7.361,162.1,0.465,0.104,22.33,108.6032,21.31,22.34,15.4,0,111,13.05,22.13,124.1
"2016-05-06 01:17:00",1608565,7.397,160.8,0.77,0.167,22.37,108.6032,21.31,22.34,15.3,0,111,13.05,22.13,122.8
"2016-05-06 01:17:30",1608566,7.287,159.7,0.714,0.078,22.3,108.6027,21.31,22.32,15.17,0,111,13.05,22.13,121.7
"2016-05-06 01:18:00",1608567,7.167,160,0.767,0.047,22.25,108.6013,21.3,22.31,15.15,0,111,13.05,22.13,122.0
"2016-05-06 01:18:30",1608568,7.081,161.5,0.796,0.086,22.23,108.5973,21.29,22.31,15.24,0,111,13.05,22.12,123.5
"2016-05-06 01:19:00",1608569,7.013,160.6,1.185,0.071,22.27,108.5937,21.28,22.3,15.3,0,111,13.05,22.11,122.6
"2016-05-06 01:19:30",1608570,7.038,161,1.371,0.061,22.26,108.5844,21.26,22.3,15.45,0,111,13.05,22.09,123.0
"2016-05-06 01:20:00",1608571,6.971,161.1,1.472,0.053,22.29,108.574,21.23,22.28,15.48,0,111,13.05,22.06,123.1
"2016-05-06 01:20:30",1608572,6.886,162.2,0.587,0.093,22.36,108.5701,21.22,22.27,15.49,0,111,13.06,22.05,124.2
"2016-05-06 01:21:00",1608573,6.9,161.2,0.545,0.089,22.38,108.5695,21.22,22.28,15.57,0,111,13.06,22.05,123.2
"2016-05-06 01:21:30",1608574,7.005,161.5,0.776,0.125,22.33,108.5695,21.22,22.28,15.58,0,111,13.06,22.05,123.5
"2016-05-06 01:22:00",1608575,7.002,159.3,0.507,0.174,22.34,108.5695,21.22,22.26,15.57,0,111,13.06,22.05,121.3
"2016-05-06 01:22:30",1608576,7.204,159.6,0.6,0.05,22.3,108.5695,21.22,22.25,15.56,0,111,13.06,22.05,121.6
"2016-05-06 01:23:00",1608577,7.122,158.7,0.523,0.058,22.25,108.5701,21.22,22.27,15.57,0,111,13.06,22.05,120.7
"2016-05-06 01:23:30",1608578,7.257,158.5,0.808,0.132,22.32,108.571,21.22,22.24,15.53,0,111,13.06,22.05,120.5
"2016-05-06 01:24:00",1608579,7.409,160.2,1.184,0.095,22.46,108.5713,21.23,22.26,15.52,0,111,13.06,22.05,122.2
"2016-05-06 01:24:30",1608580,7.359,159.2,0.867,0.085,22.4,108.5744,21.23,22.26,15.54,0,111,13.06,22.06,121.2
"2016-05-06 01:25:00",1608581,7.478,157.1,0.798,0.074,22.46,108.5744,21.23,22.26,15.56,0,111,13.06,22.06,119.1
"2016-05-06 01:25:30",1608582,7.329,157.6,0.699,0.088,22.36,108.5771,21.24,22.25,15.59,0,111,13.06,22.07,119.6
"2016-05-06 01:26:00",1608583,7.426,156.4,1.07,0.082,22.4,108.5787,21.24,22.25,15.58,0,111,13.06,22.07,118.4
"2016-05-06 01:26:30",1608584,7.391,156.2,1.061,0.118,22.38,108.5798,21.25,22.24,15.31,0,111,13.06,22.07,118.2
"2016-05-06 01:27:00",1608585,7.201,156.4,1.01,0.063,22.29,108.5705,21.22,22.23,15.34,0,111,13.06,22.05,118.4
"2016-05-06 01:27:30",1608586,7.181,156.2,1.311,0.119,22.32,108.5684,21.22,22.23,15.25,0,111,13.06,22.04,118.2
"2016-05-06 01:28:00",1608587,7.097,157,1.245,0.081,22.27,108.5638,21.21,22.24,15.44,0,111,13.06,22.03,119.0
"2016-05-06 01:28:30",1608588,7.188,158,0.675,0.099,22.31,108.5554,21.18,22.22,15.56,0,111,13.06,22.01,120.0
"2016-05-06 01:29:00",1608589,7.477,159.1,1.099,0.16,22.42,108.5511,21.17,22.22,15.61,0,111,13.06,22.00,121.1
"2016-05-06 01:29:30",1608590,7.583,158.6,1.712,0.159,22.42,108.5513,21.17,22.21,15.76,0,111,13.06,22.00,120.6
"2016-05-06 01:30:00",1608591,7.329,157.2,0.67,0.105,22.35,108.5513,21.17,22.21,15.59,0,111,13.06,22.00,119.2
"2016-05-06 01:30:30",1608592,7.557,156.5,0.648,0.075,22.48,108.5544,21.18,22.2,15.55,0,111,13.06,22.01,118.5
"2016-05-06 01:31:00",1608593,7.614,156.5,0.58,0.072,22.44,108.5565,21.19,22.2,15.66,0,111,13.06,22.01,118.5
"2016-05-06 01:31:30",1608594,7.787,156,0.394,0.1,22.31,108.5611,21.2,22.2,15.5,0,111,13.06,22.03,118.0
"2016-05-06 01:32:00",1608595,7.861,155.7,0.852,0.055,22.24,108.5663,21.21,22.19,15.38,0,111,13.06,22.04,117.7
"2016-05-06 01:32:30",1608596,7.738,157.4,0.767,0.057,22.32,108.5669,21.21,22.2,15.52,0,111,13.06,22.04,119.4
"2016-05-06 01:33:00",1608597,7.683,157.2,0.958,0.124,22.4,108.5703,21.22,22.19,15.64,0,111,13.06,22.05,119.2
"2016-05-06 01:33:30",1608598,7.884,156.5,1.08,0.105,22.31,108.5709,21.22,22.19,15.62,0,111,13.06,22.05,118.5
"2016-05-06 01:34:00",1608599,7.708,157,0.545,0.067,22.4,108.5718,21.23,22.2,15.68,0,111,13.06,22.05,119.0
"2016-05-06 01:34:30",1608600,7.797,156.6,1.259,0.101,22.36,108.5724,21.23,22.18,15.79,0,111,13.06,22.05,118.6
"2016-05-06 01:35:00",1608601,8,155.9,0.905,0.15,22.43,108.5718,21.23,22.18,15.71,0,111,13.06,22.05,117.9
"2016-05-06 01:35:30",1608602,7.931,157,0.781,0.124,22.42,108.569,21.22,22.17,15.76,0,111,13.06,22.05,119.0
"2016-05-06 01:36:00",1608603,7.772,157.4,0.51,0.075,22.39,108.5654,21.21,22.18,15.85,0,111,13.06,22.04,119.4
"2016-05-06 01:36:30",1608604,7.855,158,0.825,0.09,22.37,108.5566,21.19,22.18,15.94,0,111,13.06,22.01,120.0
"2016-05-06 01:37:00",1608605,7.941,159.4,0.763,0.043,22.4,108.5513,21.17,22.17,16.08,0,111,13.06,22.00,121.4
"2016-05-06 01:37:30",1608606,7.959,159.9,0.486,0.031,22.44,108.5429,21.15,22.17,15.99,0,111,13.06,21.98,121.9
"2016-05-06 01:38:00",1608607,7.857,158.9,0.606,0.065,22.34,108.5389,21.14,22.16,15.93,0,111,13.06,21.97,120.9
"2016-05-06 01:38:30",1608608,7.804,156.7,1.103,0.068,22.3,108.5386,21.14,22.17,15.94,0,111,13.06,21.97,118.7
"2016-05-06 01:39:00",1608609,7.957,155,0.434,0.075,22.29,108.5386,21.14,22.15,15.9,0,111,13.07,21.97,117.0
"2016-05-06 01:39:30",1608610,7.745,154.7,0.894,0.087,22.39,108.5386,21.14,22.14,15.96,0,111,13.07,21.97,116.7
"2016-05-06 01:40:00",1608611,7.732,155.2,0.924,0.092,22.44,108.5386,21.14,22.13,16.08,0,111,13.07,21.97,117.2
"2016-05-06 01:40:30",1608612,7.886,155.9,0.946,0.127,22.4,108.5386,21.14,22.13,16.19,0,111,13.07,21.97,117.9
"2016-05-06 01:41:00",1608613,7.796,155,0.633,0.079,22.35,108.5386,21.14,22.13,16.12,0,111,13.07,21.97,117.0
"2016-05-06 01:41:30",1608614,7.771,153.8,1.118,0.073,22.46,108.5386,21.14,22.12,16.2,0,111,13.07,21.97,115.8
"2016-05-06 01:42:00",1608615,7.92,154.4,1.063,0.053,22.34,108.5375,21.14,22.12,16.25,0,111,13.07,21.96,116.4
"2016-05-06 01:42:30",1608616,8.03,152.8,1.545,0.111,22.42,108.5327,21.13,22.1,16.22,0,111,13.07,21.95,114.8
"2016-05-06 01:43:00",1608617,8.11,153.6,1.291,0.099,22.5,108.5296,21.12,22.1,16.35,0,111,13.07,21.94,115.6
"2016-05-06 01:43:30",1608618,7.945,152.6,0.906,0.087,22.39,108.5198,21.09,22.11,16.2,0,111,13.07,21.92,114.6
"2016-05-06 01:44:00",1608619,8.13,151.1,0.619,0.125,22.47,108.5063,21.06,22.1,16.12,0,111,13.07,21.88,113.1
"2016-05-06 01:44:30",1608620,8.29,151.5,0.905,0.17,22.51,108.5049,21.06,22.1,16.17,0,111,13.07,21.88,113.5
"2016-05-06 01:45:00",1608621,8.39,151.5,0.938,0.09,22.56,108.5049,21.06,22.08,16.25,0,111,13.07,21.88,113.5
"2016-05-06 01:45:30",1608622,8.17,152.1,0.507,0.152,22.51,108.5049,21.06,22.09,16.41,0,111,13.07,21.88,114.1
"2016-05-06 01:46:00",1608623,8.29,152.7,1.363,0.127,22.62,108.5049,21.06,22.08,16.57,0,111,13.07,21.88,114.7
"2016-05-06 01:46:30",1608624,8.25,151.5,0.59,0.085,22.59,108.5049,21.06,22.07,16.73,0,111,13.07,21.88,113.5
"2016-05-06 01:47:00",1608625,8.24,153.3,0.893,0.13,22.56,108.5038,21.05,22.07,16.78,0,111,13.07,21.88,115.3
"2016-05-06 01:47:30",1608626,8.37,153.7,0.509,0.084,22.56,108.4995,21.04,22.06,16.66,0,111,13.07,21.87,115.7